Location: Boulin
(43.2500°N, 0.1333°E)
Time: 10:02:23
(UTC+00:00)

IRIDIUM 106 - Pass Details

Date: 11 December 2025
Orbit: 776 x 779 km, 86.4° (Epoch: 21 January)

Event Time Altitude Azimuth Distance (km) Brightness Sun altitude
Rises 17:13:55 0° 358° (N) 3,272 7.3 -8.9°
Reaches altitude 10° 17:16:17 10° 0° (N) 2,339 6.6 -9.3°
Maximum altitude 17:21:31 75° 86° (E) 809 4.3 -10.2°
Drops below altitude 10° 17:26:43 10° 172° (S) 2,320 7.0 -11.1°
Sets 17:29:03 0° 174° (S) 3,242 7.7 -11.5°
